Regional Weather Roundup
Issued by NWS New Orleans/Baton Rouge, LA

Home | Current Version | Previous Version | Text Only | Print | Product List | Glossary On
Versions: 1 2 3 4 5 6 7 8 9 10 11 12 13 14 15 16 17 18 19 20 21 22 23 24 25 26 27 28
000
ASUS44 KLIX 101513
RWRLIX
NEW ORLEANS REGIONAL WEATHER ROUNDUP
NATIONAL WEATHER SERVICE NEW ORLEANS LA
900 AM CST SAT DEC 10 2016

NOTE: "FAIR" INDICATES FEW OR NO CLOUDS BELOW 12,000 FEET WITH NO
      SIGNIFICANT WEATHER AND/OR OBSTRUCTIONS TO VISIBILITY.
      SKY/WX - SKY CONDITION AND SIGNIFICANT WEATHER.
      TMP - AIR TEMPERATURE.     DP    - DEWPOINT TEMPERATURE.
      RH  - RELATIVE HUMIDITY.   PRES  - PRESSURE.
      HI  - HEAT INDEX.          WCI   - WIND CHILL INDEX.

*  THESE STATIONS ARE NOT NWS OR FAA STATIONS AND ARE NOT UNDER
   NWS QUALITY CONTROL.

LAZ038-040-048-061>063-065>067-069-101600-
SOUTHEAST LOUISIANA

CITY           SKY/WX    TMP DP  RH WIND       PRES   REMARKS
N.O. AUDUBON   NOT AVBL
N.O. INTL ARPT SUNNY     44  28  53 E14       30.55R
N.O. LAKEFRONT SUNNY     42  27  55 E17       30.56R
N.O. DOWNTOWN*   N/A     41  26  55 NE12      30.56R
RESERVE*         N/A     46  28  50 NE10      30.55R
SLIDELL        SUNNY     40  24  53 NE7       30.56R
BATON ROUGE    SUNNY     40  23  50 NE12      30.56R WCI  33
BOOTHVILLE     SUNNY     48  37  65 NE9G17    30.51R
BELLE CHASSE   MOSUNNY   45  34  65 NE10      30.54R
BOGALUSA*        N/A     38  26  61 NE5       30.60R WCI  34
GALLIANO*      SUNNY     45  32  60 NE12      30.52S
NEW ROADS*       N/A     38  24  56 E10       30.57R WCI  31
GONZALES*        N/A     40  26  55 NE10      30.54S WCI  34
HAMMOND*       SUNNY     39  23  52 E5        30.57R
HOUMA*         SUNNY     45  32  61 NE12      30.53R
PORT FOURCHON* SUNNY     48  37  66 NE17      30.51R

$$

MSZ070-080>082-101600-
SOUTHERN MISSISSIPPI

CITY           SKY/WX    TMP DP  RH WIND       PRES   REMARKS
MCCOMB         SUNNY     37  19  48 E9        30.56S WCI  30
GULFPORT       SUNNY     40  23  50 NE8       30.56R WCI  34
BILOXI         SUNNY     39  24  53 NE8       30.56R WCI  33
PASCAGOULA     SUNNY     39  23  52 NE7       30.55S WCI  34
STENNIS ARPT*  SUNNY     37  18  44 NE8       30.57R WCI  31

$$

COASTAL OBSERVATIONS
LAKE AND NEARSHORE STATIONS

STATION/POSITION TIME  TEMP    WIND        PRES    WAVE
                       AIR SEA DIR/SP/G            HT/PER
                 (UTC) (F)     (DEG/KT/KT) (MB)    (FT/S)
PASCAGOULA       1436   37      40/  9/ 13 1033.9
WAVELAND YACHT   1436   37 53   50/ 10/ 11 1034.7
GRAND ISLE       1436   48 55   60/ 14/ 19 1032.8
SOUTHWEST PASS   1448           40/ 18/ 22   N/A
NEW CANAL        1436   42 54   70/ 17/ 19 1033.2
SHELL BEACH      1436   43 54   50/ 16/ 18 1034.0

OFFSHORE STATIONS

STATION/POSITION TIME  TEMP    WIND        PRES    WAVE
                       AIR SEA DIR/SP/G            HT/PER
                 (UTC) (F)     (DEG/KT/KT) (MB)    (FT/S)
64 S DAUPHIN ISL 1450   55 74   40/ 16/ 21 1032.3    4/ 6

$$





USA.gov is the U.S. government's official web portal to all federal, state and local government web resources and services.